Content
SEND FEEDBACK

Daily
Averages
Monthly
Summary
Australia

BANKSMEADOW, NEW SOUTH WALES


Home > Oceania > Australia > New South Wales
Elevation: 6 meters     Latitude: 33 56S     Longitude: 151 10E

WEATHER
 
SELECT A DAY
Number of Records: 297,043;   Date Range: 7/1/96 - 7/8/14
 
SHARE

PRINT THIS DATA

[ ← Previous Day ]
WEATHER ALMANAC - 31 JANUARY, 2013
[ Next Day → ]
[ °F ]   °C
Weather ElementAverageHighLow
Temperature25.7 °C30 °C (3:30 pm)22.8 °C (5:00 am)
Dewpoint19.3 °C21.1 °C (11:00 pm)18 °C (9:30 am)
Humidity66.3 %83 % (9:30 pm)45 % (2:00 pm)
Barometer1010.2 hPa1015.2 hPa (12:00 am)1005.1 hPa (7:30 pm)
Wind Speed24.8 km/h42.6 km/h (9:00 pm)
Wind Gust61.2 km/h (9:00 pm)
Weather ElementAverage
Visibility12.1 km
Wind DirectionE (90.2 °)

Weather ElementTotal
Precipitation---
Cooling Degree Days8.1 (Base 18.3)
Growing Degree Days16.4 (Base 10)
Averaged from 60 records on 31 January, 2013
WEATHER CONDITIONS BREAKOUT
WIND DIRECTION BREAKOUT
WEATHER BY HOUR - 31 JANUARY, 2013
[ °F ]   °C
Local TimeTemperatureDewpointHumidityBarometerVisibilityWind DirectionWind SpeedGust SpeedPrecipitationEventsConditions
12:00 AM24 °C19 °C73 %1015.2 hPa10 kmNE (40°)11.1 km/hMostly Cloudy
12:30 AM24 °C20 °C78 %1014.2 hPa10 kmNNE (30°)14.8 km/hMostly Cloudy
1:00 AM24 °C19 °C73 %1014.2 hPa10 kmNNE (20°)14.8 km/hMostly Cloudy
1:30 AM24 °C19 °C73 %1014.2 hPa10 kmNNE (30°)16.7 km/hMostly Cloudy
2:00 AM23.3 °C18.9 °C71 %1014.2 hPaNNE (20°)14.8 km/h
2:00 AM24 °C19 °C73 %1014.2 hPa10 kmNNE (20°)14.8 km/hMostly Cloudy
2:30 AM24 °C19 °C73 %1013.2 hPa10 kmNNE (30°)13 km/hMostly Cloudy
3:00 AM24 °C19 °C73 %1013.2 hPa10 kmNNE (30°)9.3 km/hMostly Cloudy
3:00 AM23.9 °C18.9 °C65 %1013.9 hPa19.3 kmNNE (30°)9.3 km/hHaze
4:00 AM23 °C19 °C78 %1013.2 hPa10 kmNNE (20°)9.3 km/hScattered Clouds
4:30 AM23 °C19 °C78 %1013.2 hPa10 kmNorth (360°)9.3 km/hPartly Cloudy
5:00 AM22.8 °C18.9 °C74 %1013.5 hPaNorth (350°)7.4 km/h
5:00 AM23 °C19 °C78 %1013.2 hPa10 kmNorth (350°)7.4 km/hScattered Clouds
6:00 AM22.8 °C19.4 °C75 %1013.2 hPa25.7 kmNNW (340°)9.3 km/hPartly Cloudy
6:00 AM23 °C19 °C78 %1013.2 hPa10 kmNNW (340°)9.3 km/hPartly Cloudy
6:30 AM23 °C19 °C78 %1013.2 hPa10 kmNW (310°)9.3 km/hPartly Cloudy
7:00 AM23 °C19 °C78 %1013.2 hPa10 kmNW (320°)11.1 km/hPartly Cloudy
7:30 AM24 °C19 °C73 %1013.2 hPa10 kmNNW (330°)11.1 km/hPartly Cloudy
8:00 AM25 °C19.4 °C63 %1013.5 hPaNorth (350°)13 km/h
8:00 AM25 °C19 °C69 %1013.2 hPa10 kmNorth (350°)13 km/hPartly Cloudy
8:30 AM25 °C19 °C69 %1013.2 hPa10 kmNorth (10°)16.7 km/hPartly Cloudy
9:00 AM26.1 °C18.3 °C55 %1013.2 hPa25.7 kmNorth (10°)20.4 km/hPartly Cloudy
9:00 AM26 °C19 °C65 %1013.2 hPa10 kmNorth (10°)20.4 km/hScattered Clouds
9:30 AM26 °C18 °C61 %1012.2 hPa10 kmNorth (360°)18.5 km/hScattered Clouds
10:00 AM27 °C18 °C58 %1012.2 hPa10 kmNNE (30°)18.5 km/hMostly Cloudy
11:00 AM27.2 °C18.3 °C49 %1012.2 hPaNNE (30°)24.1 km/h
11:00 AM27 °C18 °C58 %1011.2 hPa10 kmNNE (30°)24.1 km/hMostly Cloudy
11:30 AM27 °C18 °C58 %1011.2 hPa10 kmNNE (30°)29.6 km/hMostly Cloudy
11:58 AM28 °C18 °C54 %1011.2 hPa10 kmNNE (30°)31.5 km/hScattered Clouds
12:00 PM28 °C19 °C58 %1011.2 hPa10 kmNNE (30°)29.6 km/hScattered Clouds
12:00 PM27.8 °C18.3 °C48 %1011.5 hPa25.7 kmNE (40°)29.6 km/hPartly Cloudy
12:30 PM28 °C18 °C54 %1010.2 hPa10 kmNE (50°)27.8 km/hPartly Cloudy
1:00 PM29 °C18 °C51 %1010.2 hPa10 kmNE (50°)29.6 km/hPartly Cloudy
1:30 PM28 °C19 °C58 %1009.1 hPa10 kmNE (50°)33.3 km/hPartly Cloudy
2:00 PM28.9 °C18.9 °C45 %1009.1 hPaNE (50°)35.2 km/h
2:00 PM29 °C19 °C55 %1008.1 hPa10 kmNE (50°)35.2 km/hPartly Cloudy
2:30 PM28 °C19 °C58 %1008.1 hPa10 kmENE (60°)35.2 km/hPartly Cloudy
3:00 PM29 °C19 °C55 %1008.1 hPa10 kmNE (50°)37 km/hPartly Cloudy
3:00 PM28.3 °C18.9 °C48 %1008.1 hPa30.6 kmNE (50°)37 km/hPartly Cloudy
3:30 PM30 °C19 °C51 %1007.1 hPaNNE (30°)35.2 km/hClear
4:00 PM28 °C19 °C58 %1007.1 hPaNE (40°)38.9 km/hClear
4:30 PM28 °C19 °C58 %1007.1 hPaNE (40°)38.9 km/hClear
5:00 PM28.3 °C19.4 °C49 %1006.8 hPaNE (50°)35.2 km/h
5:00 PM28 °C19 °C58 %1006.1 hPaNE (50°)35.2 km/hClear
5:30 PM28 °C19 °C58 %1006.1 hPaNE (40°)37 km/hClear
6:00 PM28 °C19 °C58 %1006.1 hPaNNE (30°)35.2 km/hClear
6:00 PM27.8 °C19.4 °C51 %1006.4 hPa25.7 kmNNE (30°)35.2 km/hPartly Cloudy
7:00 PM26 °C20 °C69 %1006.1 hPa10 kmNE (40°)35.2 km/hPartly Cloudy
7:30 PM26 °C21 °C74 %1005.1 hPa10 kmNE (40°)33.3 km/hPartly Cloudy
8:00 PM25 °C20.6 °C70 %1006.1 hPaNE (40°)37 km/h
8:00 PM25 °C21 °C78 %1006.1 hPa10 kmNE (40°)37 km/hPartly Cloudy
8:30 PM25 °C21 °C78 %1005.1 hPa10 kmNE (40°)37 km/hPartly Cloudy
9:00 PM25 °C21 °C78 %1005.1 hPa10 kmNNE (30°)42.6 km/h61.2 km/hPartly Cloudy
9:00 PM24.4 °C20.6 °C74 %1005.8 hPa14.5 kmNNE (30°)42.6 km/hHaze
9:30 PM24 °C21 °C83 %1005.1 hPa10 kmNNE (30°)42.6 km/hPartly Cloudy
10:00 PM25 °C21 °C78 %1005.1 hPa10 kmNE (40°)40.7 km/h59.2 km/hPartly Cloudy
10:30 PM25 °C21 °C78 %1006.1 hPa10 kmNNE (20°)27.8 km/hPartly Cloudy
11:00 PM23.9 °C21.1 °C79 %1006.1 hPaNNE (20°)20.4 km/h
11:00 PM24 °C21 °C83 %1005.1 hPa10 kmNNE (20°)20.4 km/hPartly Cloudy
11:30 PM24 °C21 °C83 %1005.1 hPa10 kmNNE (20°)16.7 km/hPartly Cloudy
Hourly data recorded from YSSY, located 0 kilometers away from Banksmeadow, New South Wales







STORIES FROM OUR PARTNERS